Gakona, AK

3:38 AM AKDT on July 29, 2016 (GMT -0800)
Gulkana

Weather History for PAGK - January, 2014

Change the Weather History Date:

Saturday, January 4, 2014

  Actual Average Record
Temperature  
Mean Temperature 8 °F -  
Max Temperature 19 °F 0 °F 41 °F (2005)
Min Temperature -2 °F -15 °F -53 °F (1975)
Degree Days  
Heating Degree Days 56    
Moisture  
Dew Point 7 °F    
Average Humidity 85    
Maximum Humidity 92    
Minimum Humidity 75    
Precipitation  
Precipitation 0.12 in - - ()
Sea Level Pressure  
Sea Level Pressure 30.05 in    
Wind  
Wind Speed 2 mph (NNE)    
Max Wind Speed 9 mph    
Max Gust Speed -    
Visibility 3 miles    
Events Fog , Snow    
Averages and records for this station are not official NWS values.
T = Trace of Precipitation, MM = Missing Value Source: NWS Daily Summary

Daily Weather History Graph

Daily Weather History Graph

Search for Another Location

Airport or City:

Trip Planner

Search our weather history database for the weather conditions in past years. The results will help you decide how hot, cold, wet, or windy it might be!

Date:

Astronomy

Jan. 04, 2014 Rise Set
Actual Time 10:03 AM AKST 3:30 PM AKST
Civil Twilight 8:59 AM AKST 4:34 PM AKST
Nautical Twilight 7:58 AM AKST 5:35 PM AKST
Astronomical Twilight 7:03 AM AKST 6:30 PM AKST
Moon 10:45 AM AKST (1/4) 9:39 PM AKST (1/4)
Length of Visible Light 7h 34m
Length of Day
5h 26m
Waxing Crescent, 16% of the Moon is Illuminated
Jan 4
Waxing Crescent
Jan 7
First Quarter
Jan 15
Full
Jan 23
Last Quarter
Jan 30
New

Hourly Weather History & Observations

Time (AKST) Temp. Windchill Dew Point Humidity Pressure Visibility Wind Dir Wind Speed Gust Speed Precip Events Conditions
12:53 AM -2.0 °F - -6.0 °F 83% 30.46 in 7.0 mi Calm Calm - N/A   Clear
1:23 AM -2.0 °F - -7.1 °F 79% 30.28 in 7.0 mi Calm Calm - N/A   Mostly Cloudy
1:42 AM -0.0 °F - -5.1 °F 79% 30.27 in 6.0 mi Calm Calm - N/A   Haze
1:53 AM -0.0 °F - -4.0 °F 83% 30.44 in 7.0 mi Calm Calm - N/A   Overcast
2:27 AM -0.0 °F - -4.0 °F 83% 30.26 in 7.0 mi Calm Calm - N/A   Mostly Cloudy
2:43 AM -0.9 °F - -5.1 °F 83% 30.25 in 7.0 mi Calm Calm - N/A   Scattered Clouds
3:53 AM -2.9 °F - -7.1 °F 82% 30.44 in 7.0 mi Calm Calm - N/A   Clear
4:19 AM -2.0 °F - -6.0 °F 83% 30.24 in 7.0 mi Calm Calm - N/A   Scattered Clouds
4:28 AM -0.0 °F - -5.1 °F 79% 30.24 in 6.0 mi Calm Calm - N/A   Haze
4:53 AM 1.0 °F - -4.0 °F 79% 30.41 in 6.0 mi Calm Calm - N/A   Haze
5:53 AM 1.9 °F - -2.0 °F 83% 30.39 in 6.0 mi Calm Calm - N/A   Overcast
6:53 AM 3.0 °F - -0.9 °F 84% 30.37 in 6.0 mi Calm Calm - N/A   Overcast
7:14 AM 3.0 °F - -0.0 °F 87% 30.18 in 6.0 mi Calm Calm - N/A   Overcast
7:53 AM 3.9 °F -3.4 °F -0.0 °F 84% 30.35 in 6.0 mi NNE 3.5 mph - N/A   Overcast
8:53 AM 5.0 °F -2.1 °F 1.0 °F 84% 30.32 in 6.0 mi NNE 3.5 mph - N/A   Overcast
9:19 AM 5.0 °F - 1.9 °F 87% 30.14 in 6.0 mi Calm Calm - N/A   Overcast
9:53 AM 6.1 °F - 1.9 °F 83% 30.30 in 5.0 mi Calm Calm - N/A   Overcast
10:46 AM 7.0 °F 0.1 °F 3.0 °F 84% 30.12 in 1.8 mi North 3.5 mph - 0.00 in Snow Light Snow
10:53 AM 7.0 °F - 3.9 °F 87% 30.29 in 1.5 mi Calm Calm - 0.00 in Snow Light Snow
11:35 AM 8.1 °F -0.5 °F 3.9 °F 83% 30.10 in 0.8 mi NNE 4.6 mph - 0.01 in Snow Light Snow
11:53 AM 8.1 °F 1.4 °F 3.9 °F 83% 30.27 in 0.5 mi North 3.5 mph - 0.01 in Fog , Snow Light Snow
12:21 PM 9.0 °F 2.4 °F 5.0 °F 84% 30.07 in 1.0 mi NNE 3.5 mph - 0.01 in Snow Light Snow
12:30 PM 9.0 °F 2.4 °F 5.0 °F 84% 30.06 in 1.2 mi North 3.5 mph - 0.01 in Snow Light Snow
12:53 PM 10.0 °F 3.6 °F 6.1 °F 84% 30.22 in 1.0 mi NNW 3.5 mph - 0.01 in Snow Light Snow
1:07 PM 10.0 °F - 6.1 °F 84% 30.04 in 0.8 mi Calm Calm - 0.01 in Snow Light Snow
1:42 PM 10.0 °F - 8.1 °F 92% 30.01 in 0.5 mi Calm Calm - 0.02 in Fog , Snow Snow
1:53 PM 10.9 °F - 7.0 °F 84% 30.16 in 0.2 mi Calm Calm - 0.04 in Fog , Snow Light Snow
2:12 PM 10.9 °F - 8.1 °F 88% 29.99 in 0.2 mi Calm Calm - 0.03 in Fog , Snow Snow
2:26 PM 10.9 °F - 8.1 °F 88% 29.98 in 0.5 mi Calm Calm - 0.04 in Fog , Snow Snow
2:53 PM 12.0 °F 5.9 °F 9.0 °F 88% 30.12 in 0.8 mi North 3.5 mph - 0.05 in Snow Light Snow
3:07 PM 12.9 °F 2.6 °F 10.0 °F 88% 29.94 in 1.0 mi North 6.9 mph - 0.00 in Snow Light Snow
3:20 PM 12.9 °F 3.8 °F 10.0 °F 88% 29.93 in 1.5 mi North 5.8 mph - 0.01 in Snow Light Snow
3:41 PM 14.0 °F 5.1 °F 10.9 °F 88% 29.90 in 2.0 mi NNE 5.8 mph - 0.01 in Snow Light Snow
3:53 PM 14.0 °F - 10.9 °F 88% 30.06 in 2.5 mi Calm Calm - 0.01 in Snow Light Snow
4:08 PM 15.1 °F 9.4 °F 12.0 °F 88% 29.90 in 3.0 mi North 3.5 mph - 0.00 in Snow Light Snow
4:53 PM 15.1 °F 9.4 °F 12.0 °F 88% 30.02 in 5.0 mi NW 3.5 mph - 0.00 in   Overcast
5:00 PM 15.1 °F 9.4 °F 12.0 °F 88% 29.85 in 5.0 mi NNW 3.5 mph - N/A   Overcast
5:09 PM 16.0 °F - 12.0 °F 84% 29.85 in 5.0 mi Calm Calm - N/A   Overcast
5:45 PM 16.0 °F - 12.9 °F 88% 29.83 in 1.8 mi Calm Calm - 0.00 in Snow Light Snow
5:53 PM 16.0 °F - 12.9 °F 88% 29.97 in 1.5 mi Calm Calm - 0.00 in Snow Light Snow
6:49 PM 15.8 °F 10.2 °F 12.2 °F 86% 29.79 in 1.8 mi NNE 3.5 mph - 0.01 in Snow Light Snow
6:53 PM 14.0 °F 8.2 °F 12.0 °F 92% 29.94 in 2.0 mi ENE 3.5 mph - 0.01 in Snow Light Snow
7:07 PM 15.1 °F - 10.9 °F 84% 29.78 in 4.0 mi Calm Calm - 0.00 in Snow Light Snow
7:29 PM 17.1 °F 7.6 °F 14.0 °F 88% 29.77 in 5.0 mi NNE 6.9 mph - 0.00 in   Overcast
7:53 PM 18.0 °F 7.7 °F 16.0 °F 92% 29.91 in 3.0 mi NNE 8.1 mph - 0.00 in Snow Light Snow
8:05 PM 19.0 °F 8.2 °F 16.0 °F 88% 29.76 in 4.0 mi NNE 9.2 mph - 0.00 in Snow Light Snow
8:25 PM 19.0 °F 10.0 °F 16.0 °F 88% 29.75 in 2.0 mi NNE 6.9 mph - 0.00 in Snow Light Snow
8:34 PM 19.0 °F 8.2 °F 16.0 °F 88% 29.75 in 1.8 mi NNE 9.2 mph - 0.00 in Snow Light Snow
8:50 PM 19.4 °F 8.6 °F 15.8 °F 86% 29.75 in 2.0 mi NNE 9.2 mph - 0.01 in Snow Light Snow
8:53 PM 19.0 °F 8.2 °F 16.0 °F 88% 29.89 in 2.0 mi NNE 9.2 mph - 0.01 in Snow Light Snow
9:26 PM 19.0 °F 10.0 °F 16.0 °F 88% 29.73 in 1.5 mi NNE 6.9 mph - 0.00 in Snow Light Snow
9:53 PM 17.1 °F 11.7 °F 15.1 °F 92% 29.87 in 1.5 mi Variable 3.5 mph - 0.00 in Snow Light Snow
10:53 PM 15.1 °F 7.7 °F 12.9 °F 91% 29.86 in 2.0 mi SSE 4.6 mph - 0.02 in Snow Light Snow
11:04 PM 15.1 °F - 12.0 °F 88% 29.71 in 1.8 mi Calm Calm - 0.00 in Snow Light Snow
11:13 PM 15.1 °F - 12.0 °F 88% 29.71 in 2.5 mi Calm Calm - 0.00 in Snow Light Snow
11:30 PM 15.1 °F 9.4 °F 12.0 °F 88% 29.71 in 1.8 mi Variable 3.5 mph - 0.00 in Snow Light Snow
11:50 PM 17.6 °F 10.7 °F 12.2 °F 79% 29.69 in 1.5 mi ENE 4.6 mph - 0.00 in Snow Light Snow
11:53 PM 17.1 °F 10.0 °F 14.0 °F 88% 29.83 in 1.5 mi ENE 4.6 mph - 0.00 in Snow Light Snow